Weather History for KBWG - March, 2014

Change the Weather History Date:

Sunday, March 2, 2014

  Actual Average Record
Temperature  
Mean Temperature 40 °F 44 °F  
Max Temperature 54 °F 55 °F 82 °F (2012)
Min Temperature 26 °F 33 °F 6 °F (1980)
Degree Days  
Heating Degree Days 25 21  
Month to date heating degree days 40 42  
Since 1 July heating degree days 3649 3240  
Cooling Degree Days 0 0  
Month to date cooling degree days 0 0  
Year to date cooling degree days 0 0  
Moisture  
Dew Point 32 °F    
Average Humidity 78    
Maximum Humidity 96    
Minimum Humidity 59    
Precipitation  
Precipitation 2.03 in 0.14 in 2.03 in (2014)
Month to date precipitation 2.03 0.28  
Year to date precipitation 9.20 7.85  
Snow  
Snow 1.40 in 0.10 in 8.30 in (1927)
Month to date snowfall 1.4 0.1  
Since 1 July snowfall 6.7 7.9  
Snow Depth 0.00 in    
Sea Level Pressure  
Sea Level Pressure 30.11 in    
Wind  
Wind Speed 7 mph (North)    
Max Wind Speed 18 mph    
Max Gust Speed 27 mph    
Visibility 4 miles    
Events Rain    
T = Trace of Precipitation, MM = Missing Value Source: NWS Daily Summary

Daily Weather History Graph

Daily Weather History Graph

Search for Another Location

Airport or City:

Trip Planner

Search our weather history database for the weather conditions in past years. The results will help you decide how hot, cold, wet, or windy it might be!

Date:

Astronomy

Mar. 02, 2014 Rise Set
Actual Time 6:15 AM CST 5:40 PM CST
Civil Twilight 5:49 AM CST 6:06 PM CST
Nautical Twilight 5:19 AM CST 6:37 PM CST
Astronomical Twilight 4:49 AM CST 7:07 PM CST
Moon 6:49 AM CST 7:32 PM CST
Length of Visible Light 12h 17m
Length of Day
11h 25m
Waxing Crescent, 3% of the Moon is Illuminated
Mar 2
Waxing Crescent
Mar 8
First Quarter
Mar 16
Full
Mar 23
Last Quarter
Mar 30
New

Hourly Weather History & Observations

Time (CST) Temp. Windchill Dew Point Humidity Pressure Visibility Wind Dir Wind Speed Gust Speed Precip Events Conditions
12:53 AM 53.1 °F - 42.1 °F 66% 30.08 in 10.0 mi ENE 3.5 mph - N/A   Overcast
1:53 AM 54.0 °F - 41.0 °F 62% 30.08 in 10.0 mi Calm Calm - N/A   Overcast
2:53 AM 51.1 °F - 43.0 °F 74% 30.06 in 10.0 mi Calm Calm - N/A   Overcast
3:53 AM 51.1 °F - 44.1 °F 77% 30.06 in 10.0 mi Calm Calm - N/A   Overcast
4:53 AM 52.0 °F - 43.0 °F 71% 30.05 in 10.0 mi Calm Calm - N/A   Overcast
5:53 AM 50.0 °F - 46.0 °F 86% 30.01 in 10.0 mi SE 4.6 mph - 0.01 in   Overcast
6:41 AM 50.0 °F - 46.0 °F 86% 30.02 in 10.0 mi NW 3.5 mph - 0.00 in   Overcast
6:53 AM 50.0 °F - 46.9 °F 89% 30.02 in 9.0 mi WNW 4.6 mph - 0.00 in   Overcast
7:53 AM 46.0 °F 42.5 °F 43.0 °F 89% 30.04 in 6.0 mi NW 6.9 mph - N/A   Overcast
8:03 AM 45.0 °F 40.1 °F 41.0 °F 86% 30.06 in 5.0 mi NW 9.2 mph - N/A   Overcast
8:19 AM 43.0 °F 36.8 °F 39.9 °F 89% 30.06 in 3.0 mi NW 11.5 mph - N/A   Overcast
8:40 AM 41.0 °F 35.2 °F 37.9 °F 89% 30.06 in 2.5 mi NNW 9.2 mph - N/A   Overcast
8:53 AM 39.9 °F 33.4 °F 37.0 °F 89% 30.09 in 2.5 mi NW 10.4 mph - N/A   Overcast
9:06 AM 39.9 °F 33.4 °F 37.0 °F 89% 30.09 in 1.2 mi NW 10.4 mph 19.6 mph N/A   Overcast
9:34 AM 37.9 °F 29.2 °F 36.0 °F 93% 30.13 in 1.2 mi NNW 15.0 mph 25.3 mph 0.00 in Rain Light Rain
9:38 AM 37.9 °F 29.2 °F 36.0 °F 93% 30.14 in 1.5 mi NW 15.0 mph 25.3 mph 0.00 in Rain Light Rain
9:48 AM 37.4 °F 29.3 °F 35.6 °F 93% 30.15 in 1.2 mi NNW 12.7 mph 25.3 mph 0.01 in Rain Light Rain
9:53 AM 36.0 °F 26.7 °F 34.0 °F 93% 30.18 in 1.5 mi NNW 15.0 mph 25.3 mph 0.01 in   Overcast
10:16 AM 35.1 °F 26.4 °F 32.0 °F 89% 30.16 in 2.5 mi North 12.7 mph 24.2 mph 0.00 in   Overcast
10:22 AM 34.0 °F 26.6 °F 32.0 °F 92% 30.14 in 3.0 mi NE 9.2 mph 21.9 mph 0.01 in Rain Rain
10:30 AM 35.1 °F 29.3 °F 32.0 °F 89% 30.13 in 5.0 mi East 6.9 mph - 0.02 in Rain Rain
10:43 AM 35.1 °F 28.6 °F 33.1 °F 92% 30.11 in 2.5 mi ESE 8.1 mph - 0.06 in Rain Heavy Rain
10:53 AM 35.1 °F 29.3 °F 33.1 °F 92% 30.13 in 2.0 mi SSE 6.9 mph - 0.12 in Rain Rain
11:10 AM 36.0 °F - 35.1 °F 97% 30.12 in 5.0 mi Calm Calm - 0.03 in Rain Light Rain
11:19 AM 36.0 °F 29.6 °F 33.1 °F 89% 30.15 in 5.0 mi WNW 8.1 mph - 0.04 in Rain Light Rain
11:27 AM 36.0 °F 32.1 °F 33.1 °F 89% 30.12 in 2.5 mi North 4.6 mph - 0.05 in Rain Rain
11:40 AM 36.0 °F 29.6 °F 34.0 °F 93% 30.13 in 6.0 mi NNW 8.1 mph - 0.05 in   Overcast
11:53 AM 36.0 °F 28.5 °F 34.0 °F 93% 30.13 in 6.0 mi NW 10.4 mph - 0.06 in Rain Light Rain
12:53 PM 35.1 °F 29.3 °F 33.1 °F 92% 30.12 in 5.0 mi North 6.9 mph - 0.05 in Rain Light Rain
1:12 PM 35.1 °F 28.6 °F 33.1 °F 92% 30.12 in 1.8 mi NNW 8.1 mph - 0.04 in Rain Light Rain
1:18 PM 34.0 °F 28.0 °F 33.1 °F 96% 30.13 in 0.8 mi NNW 6.9 mph - 0.10 in Rain Heavy Rain
1:28 PM 34.0 °F 29.8 °F 33.1 °F 96% 30.10 in 1.5 mi NNE 4.6 mph - 0.17 in Rain Heavy Rain
1:38 PM 35.1 °F 30.1 °F 33.1 °F 92% 30.11 in 3.0 mi North 5.8 mph - 0.20 in Rain Rain
1:53 PM 35.1 °F 28.6 °F 33.1 °F 92% 30.11 in 6.0 mi NNW 8.1 mph - 0.21 in Rain Light Rain
2:29 PM 35.1 °F 30.1 °F 33.1 °F 92% 30.12 in 2.0 mi NNW 5.8 mph - 0.08 in Rain Heavy Rain
2:37 PM 35.1 °F 29.3 °F 33.1 °F 92% 30.09 in 1.5 mi NNE 6.9 mph - 0.14 in Rain Heavy Rain
2:48 PM 33.8 °F 27.7 °F 32.0 °F 93% 30.09 in 2.0 mi North 6.9 mph - 0.19 in Rain Heavy Rain
2:53 PM 34.0 °F 28.0 °F 32.0 °F 92% 30.09 in 3.0 mi North 6.9 mph - 0.20 in Rain Rain
3:14 PM 34.0 °F 28.8 °F 33.1 °F 96% 30.11 in 2.0 mi North 5.8 mph - 0.08 in Rain Heavy Rain
3:28 PM 34.0 °F 27.2 °F 32.0 °F 92% 30.10 in 4.0 mi North 8.1 mph - 0.12 in Rain Rain
3:53 PM 34.0 °F 28.8 °F 32.0 °F 92% 30.09 in 4.0 mi NNE 5.8 mph - 0.19 in Rain Rain
4:11 PM 34.0 °F 29.8 °F 33.1 °F 96% 30.09 in 7.0 mi North 4.6 mph - 0.04 in Rain Light Rain
4:19 PM 34.0 °F 28.8 °F 33.1 °F 96% 30.09 in 10.0 mi North 5.8 mph - 0.04 in   Overcast
4:53 PM 34.0 °F 29.8 °F 32.0 °F 92% 30.10 in 3.0 mi Variable 4.6 mph - 0.09 in Rain Rain
5:24 PM 33.1 °F 25.5 °F 30.9 °F 92% 30.09 in 6.0 mi NNE 9.2 mph - 0.06 in Rain Rain
5:53 PM 33.1 °F 25.5 °F 30.0 °F 89% 30.13 in 4.0 mi North 9.2 mph - 0.17 in Rain Rain
6:24 PM 32.0 °F 25.6 °F 28.9 °F 88% 30.14 in 4.0 mi North 6.9 mph 17.3 mph 0.11 in Rain Light Freezing Rain
6:37 PM 32.0 °F 24.2 °F 30.0 °F 92% 30.12 in 4.0 mi NNE 9.2 mph - 0.15 in Rain Light Freezing Rain
6:45 PM 32.0 °F 23.0 °F 28.9 °F 88% 30.12 in 3.0 mi North 11.5 mph 20.7 mph 0.17 in Rain Light Freezing Rain
6:53 PM 32.0 °F 24.8 °F 28.9 °F 88% 30.14 in 4.0 mi North 8.1 mph - 0.18 in Rain Light Freezing Rain
6:59 PM 32.0 °F 25.6 °F 28.9 °F 88% 30.12 in 5.0 mi North 6.9 mph - 0.01 in Rain Light Freezing Rain
7:04 PM 32.0 °F 23.0 °F 28.9 °F 88% 30.13 in 5.0 mi NNE 11.5 mph 19.6 mph 0.01 in Rain Light Freezing Rain
7:07 PM 30.9 °F 21.2 °F 28.0 °F 89% 30.13 in 5.0 mi North 12.7 mph 20.7 mph 0.01 in Rain Light Freezing Rain
7:12 PM 30.9 °F 22.8 °F 28.0 °F 89% 30.13 in 5.0 mi North 9.2 mph 20.7 mph 0.02 in Rain Light Freezing Rain
7:22 PM 30.9 °F 20.7 °F 27.0 °F 85% 30.14 in 6.0 mi North 13.8 mph - 0.03 in Rain Light Freezing Rain
7:53 PM 30.0 °F 21.1 °F 27.0 °F 88% 30.13 in 5.0 mi NNE 10.4 mph 18.4 mph 0.05 in Rain Light Freezing Rain
8:47 PM 30.2 °F 20.2 °F 26.6 °F 86% 30.11 in 4.0 mi NNE 12.7 mph 18.4 mph 0.05 in Rain Light Freezing Rain
8:53 PM 30.0 °F 21.1 °F 27.0 °F 88% 30.13 in 3.0 mi NNE 10.4 mph 18.4 mph 0.07 in Rain Light Freezing Rain
9:00 PM 30.0 °F 20.5 °F 27.0 °F 88% 30.12 in 3.0 mi North 11.5 mph 19.6 mph 0.01 in Rain Light Freezing Rain
9:07 PM 30.0 °F 21.7 °F 27.0 °F 88% 30.12 in 2.0 mi North 9.2 mph 19.6 mph 0.04 in Rain Light Freezing Rain
9:10 PM 28.9 °F 20.4 °F 27.0 °F 92% 30.12 in 1.8 mi North 9.2 mph 17.3 mph 0.05 in Rain Light Freezing Rain
9:18 PM 28.9 °F 20.4 °F 26.1 °F 89% 30.12 in 1.8 mi North 9.2 mph - 0.08 in Rain Light Freezing Rain
9:21 PM 28.9 °F 21.1 °F 27.0 °F 92% 30.12 in 2.0 mi North 8.1 mph - 0.09 in   Overcast
9:32 PM 28.9 °F 21.9 °F 27.0 °F 92% 30.12 in 1.8 mi North 6.9 mph - 0.12 in   Overcast
9:42 PM 28.9 °F 19.2 °F 27.0 °F 92% 30.11 in 1.8 mi NNE 11.5 mph - 0.15 in   Overcast
9:46 PM 28.9 °F 19.8 °F 27.0 °F 92% 30.11 in 2.0 mi NNE 10.4 mph - 0.16 in   Overcast
9:53 PM 28.9 °F 21.1 °F 27.0 °F 92% 30.12 in 2.0 mi NNE 8.1 mph - 0.18 in   Overcast
10:00 PM 28.9 °F 21.9 °F 27.0 °F 92% 30.11 in 1.2 mi NNE 6.9 mph - 0.03 in   Overcast
10:13 PM 28.9 °F 19.8 °F 27.0 °F 92% 30.10 in 1.8 mi NNE 10.4 mph 19.6 mph 0.08 in   Overcast
10:20 PM 28.9 °F 19.2 °F 27.0 °F 92% 30.11 in 1.0 mi North 11.5 mph 19.6 mph 0.11 in   Overcast
10:33 PM 28.9 °F 21.1 °F 27.0 °F 92% 30.11 in 1.8 mi North 8.1 mph - 0.15 in   Overcast
10:48 PM 28.4 °F 18.5 °F 26.6 °F 93% 30.09 in 1.8 mi North 11.5 mph - 0.22 in   Overcast
10:53 PM 28.9 °F 18.6 °F 26.1 °F 89% 30.11 in 2.0 mi North 12.7 mph - 0.25 in   Overcast
11:01 PM 28.9 °F 19.2 °F 27.0 °F 92% 30.10 in 1.8 mi North 11.5 mph 18.4 mph 0.04 in   Overcast
11:05 PM 28.9 °F 20.4 °F 27.0 °F 92% 30.10 in 1.8 mi North 9.2 mph 18.4 mph 0.05 in Rain Light Freezing Rain
11:20 PM 28.9 °F 21.1 °F 26.1 °F 89% 30.10 in 2.0 mi North 8.1 mph 18.4 mph 0.10 in   Overcast
11:27 PM 28.0 °F 17.5 °F 26.1 °F 92% 30.11 in 1.2 mi North 12.7 mph 17.3 mph 0.11 in   Overcast
11:33 PM 28.0 °F 18.1 °F 25.0 °F 88% 30.11 in 2.0 mi North 11.5 mph - 0.13 in   Overcast
11:46 PM 27.0 °F 16.7 °F 24.1 °F 89% 30.10 in 1.8 mi North 11.5 mph 19.6 mph 0.15 in   Overcast
11:53 PM 26.1 °F 14.5 °F 24.1 °F 92% 30.11 in 2.0 mi NNE 13.8 mph 18.4 mph 0.17 in   Overcast